Regional Weather Roundup
Issued by NWS Sioux Falls, SD

Home | Current Version | Previous Version | Text Only | Print | Product List | Glossary On
Versions: 1 2 3 4 5 6 7 8 9 10 11 12 13 14 15 16 17 18 19 20 21 22 23 24 25 26 27 28 29 30 31 32 33 34 35 36 37 38 39 40 41 42 43 44 45 46 47 48 49 50
000
ASUS43 KFSD 070510
RWRFSD

WEATHER ROUNDUP FOR SE SOUTH DAKOTA/SW MINNESOTA/NW IOWA
NATIONAL WEATHER SERVICE SIOUX FALLS SD
1100 PM CST TUE DEC 06 2016

NOTE: "FAIR" INDICATES FEW OR NO CLOUDS BELOW 12,000 FEET WITH NO
SIGNIFICANT WEATHER AND OR OBSTRUCTIONS TO VISIBILITY.


SDZ038>040-050-052>070-070600-
SOUTHEAST SOUTH DAKOTA

CITY           SKY/WX    TMP DP  RH WIND       PRES   REMARKS
BROOKINGS      CLEAR      9   4  80 NW24      29.97R WCI -12
CHAMBERLAIN    CLEAR     12   5  73 W22G29    30.12R WCI  -7
HURON          CLEAR     10   2  69 NW22G33   30.08R WCI -10
MADISON        FAIR       9   5  85 NW26G32   30.00R WCI -13
MITCHELL       CLEAR     12   5  73 NW20G28   30.12R WCI  -6
SIOUX FALLS    CLEAR     12   5  73 W22G29    30.04R WCI  -7
WINNER         FAIR      10   1  67 NW10      30.14R WCI  -4
YANKTON        CLEAR     14   3  62 W18G26    30.12R WCI  -3
$$

MNZ071-072-080-081-089-090-097-098-070600-
SOUTHWEST MINNESOTA

CITY           SKY/WX    TMP DP  RH WIND       PRES   REMARKS
FAIRMONT       PTCLDY    14   8  77 W25G31    29.97R WCI  -5
JACKSON        CLEAR     12   5  73 W29       29.96R WCI  -9
LUVERNE        CLEAR     12   5  73 W20G26    30.03R WCI  -6
MARSHALL       CLEAR     12   6  77 W26G33    29.94R WCI  -8
MONTEVIDEO     CLOUDY    16   9  73 NW15G24   29.93R WCI   1
PIPESTONE      CLEAR     10   7  85 NW22G29   29.96R WCI  -9
REDWOOD FALLS  MOCLDY    14   6  70 W20       29.93R WCI  -3
TRACY          CLEAR     14   8  77 W16G26    29.94R WCI  -2
WINDOM         PTCLDY    12   7  79 W23       29.95R WCI  -7
WORTHINGTON    PTCLDY    11   6  81 W17G26    29.98R WCI  -6
$$

IAZ001>003-012>014-020>022-031-032-NEZ013-014-SDZ071-070600-
NORTHWEST IOWA

CITY           SKY/WX    TMP DP  RH WIND       PRES   REMARKS
CHEROKEE       MOCLDY    16  10  77 W13G18    30.08R WCI   2
DENISON        CLEAR     19  10  68 W10G20    30.08R WCI   8
ESTHERVILLE    PTCLDY    13   7  77 W21       29.98S WCI  -5
LE MARS        CLOUDY    16   9  73 W13G21    30.11R WCI   2
ORANGE CITY    PTCLDY    14  10  85 W23       30.04R WCI  -5
SHELDON        MOCLDY    14   9  79 W23       30.00S WCI  -5
SIOUX CITY     CLEAR     18   9  68 NW17G25   30.13R WCI   3
SPENCER        CLEAR     14   8  77 W29G37    30.00R WCI  -7
STORM LAKE     MOCLDY    16   9  73 W24G31    30.04R WCI  -3
$$

ABBREVIATIONS USED IN REMARKS
   TC - TEMPERATURE IN CELSIUS
  WCI - WIND CHILL INDEX
   HX - HEAT INDEX
  VSB - VISIBILITY





USA.gov is the U.S. government's official web portal to all federal, state and local government web resources and services.